Volver al catálogo

SL-8 R/B

ActivoPO
NORAD 22591·ROCKET BODY·🇷🇺 Russia

Lanzado Apr 1, 1993 desde Plesetsk Cosmodrome

Loading…

Próximos Pases (próximas 24 horas)

TLE

ActualizadoSource: Space-Track

Época: Sep 14, 2026, 08:00 UTC

1 22591U 93020B   26257.33354833 -.00000011  00000-0 -25985-4 0  9994
2 22591  82.9281  43.5286 0023958 279.3515  99.6792 13.77764859681293

Sigue SL-8 R/B en tiempo real con AllMySat

Download on the App Store